Time,TemperatureF,DewpointF,PressureIn,WindDirection,WindDirectionDegrees,WindSpeedMPH,WindSpeedGustMPH,Humidity,HourlyPrecipIn,Conditions,Clouds,dailyrainin,SoftwareType,DateUTC
2013-01-08 00:00:00,17.4,10.3,30.30,ENE,68,0.0,0.0,73,0.00,,---,0.00,VWS V14.00,2013-01-08 05:00:00,
2013-01-08 00:02:00,17.4,10.3,30.30,ENE,68,0.0,0.0,73,0.00,,---,0.00,VWS V14.00,2013-01-08 05:02:00,
2013-01-08 00:03:00,17.4,10.6,30.30,ENE,68,0.0,0.0,74,0.00,,---,0.00,VWS V14.00,2013-01-08 05:03:00,
2013-01-08 00:08:00,17.6,10.7,30.30,ENE,68,0.0,0.0,74,0.00,,---,0.00,VWS V14.00,2013-01-08 05:08:00,
2013-01-08 00:13:00,17.4,10.6,30.30,ENE,68,0.0,0.0,74,0.00,,---,0.00,VWS V14.00,2013-01-08 05:13:00,
2013-01-08 00:18:00,17.2,10.4,30.30,ENE,68,0.0,0.0,74,0.00,,---,0.00,VWS V14.00,2013-01-08 05:18:00,
2013-01-08 00:23:00,17.4,10.9,30.30,ENE,68,0.0,0.0,75,0.00,,---,0.00,VWS V14.00,2013-01-08 05:23:00,
2013-01-08 00:28:00,17.4,10.9,30.30,ENE,68,0.0,0.0,75,0.00,,---,0.00,VWS V14.00,2013-01-08 05:28:00,
2013-01-08 00:33:00,17.6,11.0,30.30,ENE,68,0.0,0.0,75,0.00,,---,0.00,VWS V14.00,2013-01-08 05:33:00,
2013-01-08 00:38:00,17.4,10.9,30.30,ENE,68,0.0,0.0,75,0.00,,---,0.00,VWS V14.00,2013-01-08 05:38:00,
2013-01-08 00:43:00,17.4,10.9,30.30,ENE,68,0.0,0.0,75,0.00,,---,0.00,VWS V14.00,2013-01-08 05:43:00,
2013-01-08 00:48:00,17.2,10.7,30.30,ENE,68,0.0,0.0,75,0.00,,---,0.00,VWS V14.00,2013-01-08 05:48:00,
2013-01-08 00:53:00,17.8,11.2,30.30,ENE,68,0.0,0.0,75,0.00,,---,0.00,VWS V14.00,2013-01-08 05:53:00,
2013-01-08 00:58:00,17.8,11.2,30.30,ENE,68,0.0,0.0,75,0.00,,---,0.00,VWS V14.00,2013-01-08 05:58:00,
2013-01-08 01:03:00,17.8,11.2,30.30,ENE,68,0.0,0.0,75,0.00,,---,0.00,VWS V14.00,2013-01-08 06:03:00,
2013-01-08 01:08:00,17.6,11.3,30.30,ENE,68,0.0,0.0,76,0.00,,---,0.00,VWS V14.00,2013-01-08 06:08:00,
2013-01-08 01:13:00,17.8,11.5,30.30,ENE,68,0.0,0.0,76,0.00,,---,0.00,VWS V14.00,2013-01-08 06:13:00,
2013-01-08 01:18:00,17.6,11.3,30.30,ENE,68,0.0,0.0,76,0.00,,---,0.00,VWS V14.00,2013-01-08 06:18:00,
2013-01-08 01:23:00,17.6,11.3,30.30,ENE,68,0.0,0.0,76,0.00,,---,0.00,VWS V14.00,2013-01-08 06:23:00,
2013-01-08 01:28:00,17.4,11.2,30.30,SE,135,0.0,0.0,76,0.00,,---,0.00,VWS V14.00,2013-01-08 06:28:00,
2013-01-08 01:33:00,17.1,10.8,30.30,SE,135,0.0,0.0,76,0.00,,---,0.00,VWS V14.00,2013-01-08 06:33:00,
2013-01-08 01:38:00,17.4,11.2,30.30,SE,135,0.0,0.0,76,0.00,,---,0.00,VWS V14.00,2013-01-08 06:38:00,
2013-01-08 01:43:00,17.6,11.3,30.30,SE,135,0.0,0.0,76,0.00,,---,0.00,VWS V14.00,2013-01-08 06:43:00,
2013-01-08 01:48:00,17.8,11.5,30.30,SE,135,0.0,0.0,76,0.00,,---,0.00,VWS V14.00,2013-01-08 06:48:00,
2013-01-08 01:53:00,18.1,11.9,30.30,SE,135,0.0,0.0,76,0.00,,---,0.00,VWS V14.00,2013-01-08 06:53:00,
2013-01-08 01:58:00,18.5,12.2,30.30,SE,135,0.0,0.0,76,0.00,,---,0.00,VWS V14.00,2013-01-08 06:58:00,
2013-01-08 02:03:00,18.9,12.6,30.30,SE,135,0.0,0.0,76,0.00,,---,0.00,VWS V14.00,2013-01-08 07:03:00,
2013-01-08 02:08:00,19.6,13.3,30.27,SE,135,0.0,0.0,76,0.00,,---,0.00,VWS V14.00,2013-01-08 07:08:00,
2013-01-08 02:13:00,19.8,13.7,30.27,SE,135,0.0,0.0,77,0.00,,---,0.00,VWS V14.00,2013-01-08 07:13:00,
2013-01-08 02:18:00,19.9,13.9,30.27,SE,135,0.0,0.0,77,0.00,,---,0.00,VWS V14.00,2013-01-08 07:18:00,
2013-01-08 02:23:00,19.8,13.4,30.30,SE,135,0.0,0.0,76,0.00,,---,0.00,VWS V14.00,2013-01-08 07:23:00,
2013-01-08 02:28:00,19.6,13.3,30.30,SE,135,0.0,0.0,76,0.00,,---,0.00,VWS V14.00,2013-01-08 07:28:00,
2013-01-08 02:33:00,19.6,13.3,30.30,SE,135,0.0,0.0,76,0.00,,---,0.00,VWS V14.00,2013-01-08 07:33:00,
2013-01-08 02:38:00,19.6,13.6,30.30,SE,135,0.0,0.0,77,0.00,,---,0.00,VWS V14.00,2013-01-08 07:38:00,
2013-01-08 02:43:00,19.4,13.4,30.27,SE,135,0.0,0.0,77,0.00,,---,0.00,VWS V14.00,2013-01-08 07:43:00,
2013-01-08 02:48:00,19.4,13.4,30.27,SE,135,0.0,0.0,77,0.00,,---,0.00,VWS V14.00,2013-01-08 07:48:00,
2013-01-08 02:53:00,19.8,14.0,30.27,SSE,158,1.1,1.1,78,0.00,,---,0.00,VWS V14.00,2013-01-08 07:53:00,
2013-01-08 02:58:00,20.1,14.4,30.27,SSE,158,0.0,0.0,78,0.00,,---,0.00,VWS V14.00,2013-01-08 07:58:00,
2013-01-08 03:03:00,20.3,14.6,30.27,SSE,158,0.0,0.0,78,0.00,,---,0.00,VWS V14.00,2013-01-08 08:03:00,
2013-01-08 03:08:00,20.8,15.4,30.27,SSE,158,0.0,0.0,79,0.00,,---,0.00,VWS V14.00,2013-01-08 08:08:00,
2013-01-08 03:13:00,20.8,15.4,30.27,SSE,158,0.0,0.0,79,0.00,,---,0.00,VWS V14.00,2013-01-08 08:13:00,
2013-01-08 03:18:00,21.0,15.8,30.27,SSE,158,0.0,0.0,80,0.00,,---,0.00,VWS V14.00,2013-01-08 08:18:00,
2013-01-08 03:23:00,20.8,15.7,30.27,SSE,158,0.0,0.0,80,0.00,,---,0.00,VWS V14.00,2013-01-08 08:23:00,
2013-01-08 03:28:00,20.8,15.7,30.27,SSE,158,0.0,0.0,80,0.00,,---,0.00,VWS V14.00,2013-01-08 08:28:00,
2013-01-08 03:33:00,20.7,15.5,30.27,SSE,158,0.0,0.0,80,0.00,,---,0.00,VWS V14.00,2013-01-08 08:33:00,
2013-01-08 03:38:00,20.7,15.5,30.24,SSE,158,0.0,0.0,80,0.00,,---,0.00,VWS V14.00,2013-01-08 08:38:00,
2013-01-08 03:43:00,21.2,16.3,30.24,NNW,338,0.9,0.9,81,0.00,,---,0.00,VWS V14.00,2013-01-08 08:43:00,
2013-01-08 03:48:00,21.2,16.3,30.24,SSW,202,0.0,0.0,81,0.00,,---,0.00,VWS V14.00,2013-01-08 08:48:00,
2013-01-08 03:53:00,21.2,16.3,30.27,SSW,202,0.0,0.0,81,0.00,,---,0.00,VWS V14.00,2013-01-08 08:53:00,
2013-01-08 03:58:00,21.0,16.1,30.27,SSW,202,0.0,0.0,81,0.00,,---,0.00,VWS V14.00,2013-01-08 08:58:00,
2013-01-08 04:03:00,21.0,16.1,30.27,SSW,202,0.0,0.0,81,0.00,,---,0.00,VWS V14.00,2013-01-08 09:03:00,
2013-01-08 04:08:00,21.2,16.3,30.27,SSW,202,0.0,0.0,81,0.00,,---,0.00,VWS V14.00,2013-01-08 09:08:00,
2013-01-08 04:13:00,21.0,16.4,30.27,SSW,202,0.0,0.0,82,0.00,,---,0.00,VWS V14.00,2013-01-08 09:13:00,
2013-01-08 04:17:00,21.2,16.6,30.27,SSW,202,0.0,0.0,82,0.00,,---,0.00,VWS V14.00,2013-01-08 09:17:00,
2013-01-08 04:22:00,21.2,16.6,30.27,SSW,202,0.0,0.0,82,0.00,,---,0.00,VWS V14.00,2013-01-08 09:22:00,
2013-01-08 04:27:00,21.4,17.0,30.27,SSW,202,0.0,0.0,83,0.00,,---,0.00,VWS V14.00,2013-01-08 09:27:00,
2013-01-08 04:32:00,21.4,16.8,30.27,SSW,202,0.0,0.0,82,0.00,,---,0.00,VWS V14.00,2013-01-08 09:32:00,
2013-01-08 04:37:00,21.2,16.9,30.27,SSW,202,0.0,0.0,83,0.00,,---,0.00,VWS V14.00,2013-01-08 09:37:00,
2013-01-08 04:42:00,21.2,16.9,30.27,SSW,202,0.0,0.0,83,0.00,,---,0.00,VWS V14.00,2013-01-08 09:42:00,
2013-01-08 04:47:00,21.0,16.7,30.27,SSW,202,0.0,0.0,83,0.00,,---,0.00,VWS V14.00,2013-01-08 09:47:00,
2013-01-08 04:52:00,20.8,16.5,30.27,SSW,202,0.0,0.0,83,0.00,,---,0.00,VWS V14.00,2013-01-08 09:52:00,
2013-01-08 04:57:00,20.8,16.5,30.27,SSW,202,0.0,0.0,83,0.00,,---,0.00,VWS V14.00,2013-01-08 09:57:00,
2013-01-08 05:02:00,20.5,16.1,30.27,SSW,202,0.0,0.0,83,0.00,,---,0.00,VWS V14.00,2013-01-08 10:02:00,
2013-01-08 05:07:00,20.3,16.0,30.27,SSW,202,0.0,0.0,83,0.00,,---,0.00,VWS V14.00,2013-01-08 10:07:00,
2013-01-08 05:12:00,20.3,16.0,30.27,SSW,202,0.0,0.0,83,0.00,,---,0.00,VWS V14.00,2013-01-08 10:12:00,
2013-01-08 05:17:00,20.3,16.0,30.27,SSW,202,0.0,0.0,83,0.00,,---,0.00,VWS V14.00,2013-01-08 10:17:00,
2013-01-08 05:22:00,20.3,16.0,30.27,SSW,202,0.0,0.0,83,0.00,,---,0.00,VWS V14.00,2013-01-08 10:22:00,
2013-01-08 05:27:00,19.9,15.3,30.27,SSW,202,0.0,0.0,82,0.00,,---,0.00,VWS V14.00,2013-01-08 10:27:00,
2013-01-08 05:32:00,19.9,15.3,30.27,SSW,202,0.0,0.0,82,0.00,,---,0.00,VWS V14.00,2013-01-08 10:32:00,
2013-01-08 05:37:00,20.1,15.8,30.27,SSW,202,0.0,0.0,83,0.00,,---,0.00,VWS V14.00,2013-01-08 10:37:00,
2013-01-08 05:42:00,20.3,16.0,30.27,SSW,202,0.0,0.0,83,0.00,,---,0.00,VWS V14.00,2013-01-08 10:42:00,
2013-01-08 05:47:00,20.3,16.0,30.27,SSW,202,0.0,0.0,83,0.00,,---,0.00,VWS V14.00,2013-01-08 10:47:00,
2013-01-08 05:52:00,20.5,16.1,30.27,SSW,202,0.0,0.0,83,0.00,,---,0.00,VWS V14.00,2013-01-08 10:52:00,
2013-01-08 05:57:00,20.7,16.3,30.27,ESE,112,0.0,0.0,83,0.00,,---,0.00,VWS V14.00,2013-01-08 10:57:00,
2013-01-08 06:02:00,21.4,17.3,30.27,WNW,292,1.6,1.6,84,0.00,,---,0.00,VWS V14.00,2013-01-08 11:02:00,
2013-01-08 06:07:00,21.6,17.8,30.27,ESE,112,0.0,0.0,85,0.00,,---,0.00,VWS V14.00,2013-01-08 11:07:00,
2013-01-08 06:12:00,22.1,18.3,30.27,SE,135,0.0,0.0,85,0.00,,---,0.00,VWS V14.00,2013-01-08 11:12:00,
2013-01-08 06:17:00,21.9,18.1,30.27,SE,135,1.6,2.7,85,0.00,,---,0.00,VWS V14.00,2013-01-08 11:17:00,
2013-01-08 06:22:00,22.3,18.7,30.27,South,180,0.0,0.0,86,0.00,,---,0.00,VWS V14.00,2013-01-08 11:22:00,
2013-01-08 06:27:00,21.9,18.4,30.27,SE,135,0.0,0.0,86,0.00,,---,0.00,VWS V14.00,2013-01-08 11:27:00,
2013-01-08 06:32:00,22.1,18.6,30.27,SE,135,0.0,2.5,86,0.00,,---,0.00,VWS V14.00,2013-01-08 11:32:00,
2013-01-08 06:37:00,22.8,19.5,30.27,SSE,158,0.0,1.1,87,0.00,,---,0.00,VWS V14.00,2013-01-08 11:37:00,
2013-01-08 06:42:00,24.1,21.3,30.27,South,180,1.1,2.5,89,0.00,,---,0.00,VWS V14.00,2013-01-08 11:42:00,
2013-01-08 06:47:00,24.4,21.9,30.27,East,90,1.3,2.0,90,0.00,,---,0.00,VWS V14.00,2013-01-08 11:47:00,
2013-01-08 06:52:00,24.4,21.9,30.27,SSE,158,2.0,2.2,90,0.00,,---,0.00,VWS V14.00,2013-01-08 11:52:00,
2013-01-08 06:57:00,24.4,21.9,30.27,SSW,202,1.1,3.6,90,0.00,,---,0.00,VWS V14.00,2013-01-08 11:57:00,
2013-01-08 07:02:00,24.6,21.9,30.27,ESE,112,2.0,4.9,89,0.00,,---,0.00,VWS V14.00,2013-01-08 12:02:00,
2013-01-08 07:07:00,25.3,22.8,30.27,SE,135,1.1,3.6,90,0.00,,---,0.00,VWS V14.00,2013-01-08 12:07:00,
2013-01-08 07:12:00,25.7,23.2,30.27,South,180,0.0,0.0,90,0.00,,---,0.00,VWS V14.00,2013-01-08 12:12:00,
2013-01-08 07:17:00,25.9,23.4,30.27,SE,135,0.0,0.0,90,0.00,,---,0.00,VWS V14.00,2013-01-08 12:17:00,
2013-01-08 07:22:00,26.1,23.3,30.27,ESE,112,0.0,0.9,89,0.00,,---,0.00,VWS V14.00,2013-01-08 12:22:00,
2013-01-08 07:27:00,26.6,23.8,30.30,SSE,158,2.7,3.4,89,0.00,,---,0.00,VWS V14.00,2013-01-08 12:27:00,
2013-01-08 07:32:00,27.0,24.2,30.30,WSW,248,7.8,7.8,89,0.00,,---,0.00,VWS V14.00,2013-01-08 12:32:00,
2013-01-08 07:37:00,27.9,24.8,30.30,SSW,202,2.9,4.3,88,0.00,,---,0.00,VWS V14.00,2013-01-08 12:37:00,
2013-01-08 07:42:00,28.2,24.9,30.30,SE,135,4.0,4.0,87,0.00,,---,0.00,VWS V14.00,2013-01-08 12:42:00,
2013-01-08 07:47:00,28.8,24.8,30.30,ESE,112,2.0,3.4,85,0.00,,---,0.00,VWS V14.00,2013-01-08 12:47:00,
2013-01-08 07:52:00,29.3,24.8,30.30,East,90,2.0,2.9,83,0.00,,---,0.00,VWS V14.00,2013-01-08 12:52:00,
2013-01-08 07:57:00,30.0,24.9,30.30,South,180,1.6,2.2,81,0.00,,---,0.00,VWS V14.00,2013-01-08 12:57:00,
2013-01-08 08:02:00,30.2,24.8,30.30,South,180,2.9,2.9,80,0.00,,---,0.00,VWS V14.00,2013-01-08 13:02:00,
2013-01-08 08:07:00,30.7,24.4,30.30,SSW,202,1.1,3.6,77,0.00,,---,0.00,VWS V14.00,2013-01-08 13:07:00,
2013-01-08 08:12:00,31.5,24.8,30.30,SSE,158,2.0,4.9,76,0.00,,---,0.00,VWS V14.00,2013-01-08 13:12:00,
2013-01-08 08:17:00,31.6,24.3,30.30,South,180,1.1,2.7,74,0.00,,---,0.00,VWS V14.00,2013-01-08 13:17:00,
2013-01-08 08:22:00,32.4,24.4,30.30,South,180,2.9,3.8,72,0.00,,---,0.00,VWS V14.00,2013-01-08 13:22:00,
2013-01-08 08:27:00,33.1,24.7,30.30,SSE,158,2.0,4.3,71,0.00,,---,0.00,VWS V14.00,2013-01-08 13:27:00,
2013-01-08 08:32:00,33.4,24.4,30.30,SSE,158,2.7,3.8,69,0.00,,---,0.00,VWS V14.00,2013-01-08 13:32:00,
2013-01-08 08:37:00,34.0,24.2,30.30,SSW,202,1.1,2.5,67,0.00,,---,0.00,VWS V14.00,2013-01-08 13:37:00,
2013-01-08 08:42:00,34.5,24.4,30.30,South,180,2.0,2.2,66,0.00,,---,0.00,VWS V14.00,2013-01-08 13:42:00,
2013-01-08 08:47:00,34.7,23.4,30.30,SSW,202,6.3,8.1,63,0.00,,---,0.00,VWS V14.00,2013-01-08 13:47:00,
2013-01-08 08:52:00,35.2,23.5,30.30,SW,225,3.1,5.4,62,0.00,,---,0.00,VWS V14.00,2013-01-08 13:52:00,
2013-01-08 08:57:00,35.4,23.3,30.30,SSW,202,9.2,9.2,61,0.00,,---,0.00,VWS V14.00,2013-01-08 13:57:00,
2013-01-08 09:02:00,35.8,23.3,30.30,SSW,202,2.0,3.6,60,0.00,,---,0.00,VWS V14.00,2013-01-08 14:02:00,
2013-01-08 09:07:00,36.3,23.8,30.30,SW,225,1.1,1.1,60,0.00,,---,0.00,VWS V14.00,2013-01-08 14:07:00,
2013-01-08 09:12:00,36.9,23.9,30.30,SW,225,3.6,3.6,59,0.00,,---,0.00,VWS V14.00,2013-01-08 14:12:00,
2013-01-08 09:17:00,37.0,23.6,30.30,South,180,2.5,3.8,58,0.00,,---,0.00,VWS V14.00,2013-01-08 14:17:00,
2013-01-08 09:22:00,37.4,23.6,30.30,SSE,158,8.7,8.7,57,0.00,,---,0.00,VWS V14.00,2013-01-08 14:22:00,
2013-01-08 09:27:00,38.1,24.2,30.30,SSW,202,2.5,3.4,57,0.00,,---,0.00,VWS V14.00,2013-01-08 14:27:00,
2013-01-08 09:32:00,38.3,24.0,30.30,ESE,112,9.6,9.6,56,0.00,,---,0.00,VWS V14.00,2013-01-08 14:32:00,
2013-01-08 09:37:00,38.8,24.1,30.30,SSW,202,3.1,8.5,55,0.00,,---,0.00,VWS V14.00,2013-01-08 14:37:00,
2013-01-08 09:42:00,39.7,24.9,30.30,SSW,202,3.6,5.4,55,0.00,,---,0.00,VWS V14.00,2013-01-08 14:42:00,
2013-01-08 09:47:00,40.3,24.5,30.30,SE,135,8.5,8.5,53,0.00,,---,0.00,VWS V14.00,2013-01-08 14:47:00,
2013-01-08 09:52:00,40.6,24.4,30.30,SSE,158,3.6,11.9,52,0.00,,---,0.00,VWS V14.00,2013-01-08 14:52:00,
2013-01-08 09:57:00,41.0,24.7,30.30,SSE,158,3.4,9.8,52,0.00,,---,0.00,VWS V14.00,2013-01-08 14:57:00,
2013-01-08 10:02:00,41.7,24.9,30.30,South,180,6.3,6.3,51,0.00,,---,0.00,VWS V14.00,2013-01-08 15:02:00,
2013-01-08 10:07:00,42.3,25.4,30.30,SW,225,3.4,3.8,51,0.00,,---,0.00,VWS V14.00,2013-01-08 15:07:00,
2013-01-08 10:12:00,43.0,25.6,30.30,South,180,5.6,5.6,50,0.00,,---,0.00,VWS V14.00,2013-01-08 15:12:00,
2013-01-08 10:17:00,43.0,25.6,30.30,South,180,7.4,7.4,50,0.00,,---,0.00,VWS V14.00,2013-01-08 15:17:00,
2013-01-08 10:22:00,43.7,25.8,30.30,SW,225,4.3,5.6,49,0.00,,---,0.00,VWS V14.00,2013-01-08 15:22:00,
2013-01-08 10:27:00,43.3,25.5,30.30,SE,135,3.8,5.8,49,0.00,,---,0.00,VWS V14.00,2013-01-08 15:27:00,
2013-01-08 10:32:00,43.3,25.5,30.30,ENE,68,3.6,3.6,49,0.00,,---,0.00,VWS V14.00,2013-01-08 15:32:00,
2013-01-08 10:37:00,43.7,25.8,30.30,SSW,202,5.4,5.4,49,0.00,,---,0.00,VWS V14.00,2013-01-08 15:37:00,
2013-01-08 10:42:00,44.4,26.5,30.30,SSE,158,3.4,5.4,49,0.00,,---,0.00,VWS V14.00,2013-01-08 15:42:00,
2013-01-08 10:47:00,45.0,26.5,30.30,West,270,4.3,4.3,48,0.00,,---,0.00,VWS V14.00,2013-01-08 15:47:00,
2013-01-08 10:52:00,45.1,26.6,30.30,South,180,6.5,7.6,48,0.00,,---,0.00,VWS V14.00,2013-01-08 15:52:00,
2013-01-08 10:57:00,44.8,26.3,30.30,East,90,2.9,6.5,48,0.00,,---,0.00,VWS V14.00,2013-01-08 15:57:00,
2013-01-08 11:02:00,45.0,26.0,30.30,WSW,248,7.4,10.3,47,0.00,,---,0.00,VWS V14.00,2013-01-08 16:02:00,
2013-01-08 11:07:00,45.0,26.5,30.30,SSW,202,2.9,3.1,48,0.00,,---,0.00,VWS V14.00,2013-01-08 16:07:00,
2013-01-08 11:12:00,44.4,26.0,30.27,West,270,4.7,4.7,48,0.00,,---,0.00,VWS V14.00,2013-01-08 16:12:00,
2013-01-08 11:17:00,45.3,26.8,30.27,SSE,158,2.0,4.9,48,0.00,,---,0.00,VWS V14.00,2013-01-08 16:17:00,
2013-01-08 11:22:00,46.0,27.0,30.27,SW,225,2.5,2.9,47,0.00,,---,0.00,VWS V14.00,2013-01-08 16:22:00,
2013-01-08 11:27:00,45.9,26.8,30.27,ESE,112,6.3,6.3,47,0.00,,---,0.00,VWS V14.00,2013-01-08 16:27:00,
2013-01-08 11:32:00,45.9,26.8,30.27,SW,225,6.3,6.3,47,0.00,,---,0.00,VWS V14.00,2013-01-08 16:32:00,
2013-01-08 11:37:00,46.9,27.8,30.27,SSW,202,5.4,6.0,47,0.00,,---,0.00,VWS V14.00,2013-01-08 16:37:00,
2013-01-08 11:42:00,46.0,26.4,30.27,South,180,2.7,6.3,46,0.00,,---,0.00,VWS V14.00,2013-01-08 16:42:00,
2013-01-08 11:47:00,46.2,26.6,30.27,SSE,158,2.5,3.6,46,0.00,,---,0.00,VWS V14.00,2013-01-08 16:47:00,
2013-01-08 11:52:00,44.8,25.3,30.27,SW,225,6.3,7.4,46,0.00,,---,0.00,VWS V14.00,2013-01-08 16:52:00,
2013-01-08 11:57:00,45.0,25.4,30.27,South,180,2.9,4.9,46,0.00,,---,0.00,VWS V14.00,2013-01-08 16:57:00,
2013-01-08 12:02:00,45.3,26.3,30.27,SSE,158,2.7,3.6,47,0.00,,---,0.00,VWS V14.00,2013-01-08 17:02:00,
2013-01-08 12:07:00,45.0,26.0,30.27,South,180,4.3,5.8,47,0.00,,---,0.00,VWS V14.00,2013-01-08 17:07:00,
2013-01-08 12:12:00,45.1,26.1,30.27,SSW,202,2.5,2.7,47,0.00,,---,0.00,VWS V14.00,2013-01-08 17:12:00,
2013-01-08 12:17:00,45.5,26.5,30.27,SSW,202,1.1,2.2,47,0.00,,---,0.00,VWS V14.00,2013-01-08 17:17:00,
2013-01-08 12:22:00,45.5,26.5,30.27,SSW,202,5.4,5.4,47,0.00,,---,0.00,VWS V14.00,2013-01-08 17:22:00,
2013-01-08 12:27:00,44.8,25.8,30.24,SW,225,2.2,2.7,47,0.00,,---,0.00,VWS V14.00,2013-01-08 17:27:00,
2013-01-08 12:32:00,44.8,25.8,30.24,SE,135,1.3,4.0,47,0.00,,---,0.00,VWS V14.00,2013-01-08 17:32:00,
2013-01-08 12:37:00,44.8,25.8,30.24,West,270,6.5,6.5,47,0.00,,---,0.00,VWS V14.00,2013-01-08 17:37:00,
2013-01-08 12:42:00,45.3,26.3,30.24,SSW,202,2.0,3.1,47,0.00,,---,0.00,VWS V14.00,2013-01-08 17:42:00,
2013-01-08 12:47:00,45.9,26.8,30.24,WNW,292,4.3,4.3,47,0.00,,---,0.00,VWS V14.00,2013-01-08 17:47:00,
2013-01-08 12:52:00,45.9,26.8,30.24,SSW,202,3.1,6.5,47,0.00,,---,0.00,VWS V14.00,2013-01-08 17:52:00,
2013-01-08 12:57:00,45.1,26.1,30.24,SE,135,1.1,3.1,47,0.00,,---,0.00,VWS V14.00,2013-01-08 17:57:00,
2013-01-08 13:02:00,45.3,26.3,30.24,South,180,3.1,3.1,47,0.00,,---,0.00,VWS V14.00,2013-01-08 18:02:00,
2013-01-08 13:07:00,45.9,26.8,30.24,SSW,202,0.0,2.5,47,0.00,,---,0.00,VWS V14.00,2013-01-08 18:07:00,
2013-01-08 13:12:00,46.9,27.3,30.24,SE,135,4.7,4.7,46,0.00,,---,0.00,VWS V14.00,2013-01-08 18:12:00,
2013-01-08 13:17:00,47.8,28.1,30.24,West,270,2.9,2.9,46,0.00,,---,0.00,VWS V14.00,2013-01-08 18:17:00,
2013-01-08 13:22:00,47.1,27.4,30.24,SE,135,0.0,0.9,46,0.00,,---,0.00,VWS V14.00,2013-01-08 18:22:00,
2013-01-08 13:27:00,46.6,26.9,30.24,SSW,202,4.0,4.0,46,0.00,,---,0.00,VWS V14.00,2013-01-08 18:27:00,
2013-01-08 13:32:00,46.8,27.1,30.24,SE,135,2.0,2.9,46,0.00,,---,0.00,VWS V14.00,2013-01-08 18:32:00,
2013-01-08 13:37:00,47.1,27.4,30.24,SSW,202,4.3,4.3,46,0.00,,---,0.00,VWS V14.00,2013-01-08 18:37:00,
2013-01-08 13:42:00,48.6,28.2,30.21,East,90,2.5,2.9,45,0.00,,---,0.00,VWS V14.00,2013-01-08 18:42:00,
2013-01-08 13:47:00,48.9,28.0,30.21,SE,135,3.1,3.1,44,0.00,,---,0.00,VWS V14.00,2013-01-08 18:47:00,
2013-01-08 13:52:00,48.0,27.2,30.21,SE,135,1.1,7.8,44,0.00,,---,0.00,VWS V14.00,2013-01-08 18:52:00,
2013-01-08 13:57:00,47.3,26.5,30.24,East,90,3.1,4.9,44,0.00,,---,0.00,VWS V14.00,2013-01-08 18:57:00,
2013-01-08 14:02:00,46.4,26.2,30.24,ESE,112,3.4,3.4,45,0.00,,---,0.00,VWS V14.00,2013-01-08 19:02:00,
2013-01-08 14:07:00,45.9,25.7,30.24,SSW,202,2.2,4.9,45,0.00,,---,0.00,VWS V14.00,2013-01-08 19:07:00,
2013-01-08 14:12:00,45.7,26.1,30.24,SSW,202,2.7,2.9,46,0.00,,---,0.00,VWS V14.00,2013-01-08 19:12:00,
2013-01-08 14:17:00,45.7,26.1,30.24,SSE,158,3.1,3.4,46,0.00,,---,0.00,VWS V14.00,2013-01-08 19:17:00,
2013-01-08 14:22:00,45.3,25.8,30.24,South,180,2.5,2.5,46,0.00,,---,0.00,VWS V14.00,2013-01-08 19:22:00,
2013-01-08 14:27:00,45.3,25.8,30.24,SW,225,1.3,1.6,46,0.00,,---,0.00,VWS V14.00,2013-01-08 19:27:00,
2013-01-08 14:32:00,45.7,26.1,30.24,SE,135,2.0,2.0,46,0.00,,---,0.00,VWS V14.00,2013-01-08 19:32:00,
2013-01-08 14:37:00,46.0,27.0,30.24,South,180,2.0,2.0,47,0.00,,---,0.00,VWS V14.00,2013-01-08 19:37:00,
2013-01-08 14:42:00,46.2,26.6,30.24,WSW,248,2.9,2.9,46,0.00,,---,0.00,VWS V14.00,2013-01-08 19:42:00,
2013-01-08 14:47:00,45.5,25.9,30.24,WSW,248,0.9,1.1,46,0.00,,---,0.00,VWS V14.00,2013-01-08 19:47:00,
2013-01-08 14:52:00,45.5,25.9,30.24,SW,225,0.0,1.6,46,0.00,,---,0.00,VWS V14.00,2013-01-08 19:52:00,
2013-01-08 14:57:00,45.7,26.6,30.24,ESE,112,1.3,1.3,47,0.00,,---,0.00,VWS V14.00,2013-01-08 19:57:00,
2013-01-08 15:02:00,46.2,27.1,30.24,South,180,2.5,2.5,47,0.00,,---,0.00,VWS V14.00,2013-01-08 20:02:00,
2013-01-08 15:07:00,46.6,26.9,30.24,SE,135,2.5,2.5,46,0.00,,---,0.00,VWS V14.00,2013-01-08 20:07:00,
2013-01-08 15:12:00,46.6,26.9,30.24,SE,135,2.7,2.7,46,0.00,,---,0.00,VWS V14.00,2013-01-08 20:12:00,
2013-01-08 15:17:00,46.4,26.8,30.24,SSE,158,2.7,2.7,46,0.00,,---,0.00,VWS V14.00,2013-01-08 20:17:00,
2013-01-08 15:22:00,46.4,26.8,30.24,SW,225,1.3,1.3,46,0.00,,---,0.00,VWS V14.00,2013-01-08 20:22:00,
2013-01-08 15:27:00,45.7,26.1,30.24,ESE,112,3.8,3.8,46,0.00,,---,0.00,VWS V14.00,2013-01-08 20:27:00,
2013-01-08 15:32:00,45.1,26.1,30.24,SSE,158,2.2,2.2,47,0.00,,---,0.00,VWS V14.00,2013-01-08 20:32:00,
2013-01-08 15:37:00,44.2,25.3,30.24,SSW,202,3.1,3.1,47,0.00,,---,0.00,VWS V14.00,2013-01-08 20:37:00,
2013-01-08 15:42:00,43.5,25.1,30.21,SSE,158,2.7,2.7,48,0.00,,---,0.00,VWS V14.00,2013-01-08 20:42:00,
2013-01-08 15:47:00,42.8,24.5,30.21,SSE,158,0.9,0.9,48,0.00,,---,0.00,VWS V14.00,2013-01-08 20:47:00,
2013-01-08 15:52:00,42.3,24.0,30.21,SSW,202,1.6,1.6,48,0.00,,---,0.00,VWS V14.00,2013-01-08 20:52:00,
2013-01-08 15:57:00,41.5,23.8,30.24,SE,135,2.0,2.0,49,0.00,,---,0.00,VWS V14.00,2013-01-08 20:57:00,
2013-01-08 16:02:00,41.0,23.3,30.24,SSW,202,1.6,2.5,49,0.00,,---,0.00,VWS V14.00,2013-01-08 21:02:00,
2013-01-08 16:07:00,40.5,23.3,30.24,South,180,0.0,0.0,50,0.00,,---,0.00,VWS V14.00,2013-01-08 21:07:00,
2013-01-08 16:12:00,40.3,23.1,30.24,SSW,202,2.7,2.7,50,0.00,,---,0.00,VWS V14.00,2013-01-08 21:12:00,
2013-01-08 16:17:00,39.9,22.8,30.24,SSW,202,2.5,2.5,50,0.00,,---,0.00,VWS V14.00,2013-01-08 21:17:00,
2013-01-08 16:22:00,39.0,22.4,30.24,SSW,202,0.0,0.0,51,0.00,,---,0.00,VWS V14.00,2013-01-08 21:22:00,
2013-01-08 16:27:00,38.7,22.6,30.24,SSW,202,0.0,0.0,52,0.00,,---,0.00,VWS V14.00,2013-01-08 21:27:00,
2013-01-08 16:32:00,38.3,22.2,30.24,SSW,202,0.0,0.0,52,0.00,,---,0.00,VWS V14.00,2013-01-08 21:32:00,
2013-01-08 16:37:00,37.9,21.9,30.24,SSW,202,0.0,0.0,52,0.00,,---,0.00,VWS V14.00,2013-01-08 21:37:00,
2013-01-08 16:42:00,37.6,22.0,30.24,SSW,202,0.0,0.0,53,0.00,,---,0.00,VWS V14.00,2013-01-08 21:42:00,
2013-01-08 16:47:00,37.0,22.0,30.24,SSW,202,0.0,0.0,54,0.00,,---,0.00,VWS V14.00,2013-01-08 21:47:00,
2013-01-08 16:52:00,36.5,21.9,30.24,SSW,202,0.0,0.0,55,0.00,,---,0.00,VWS V14.00,2013-01-08 21:52:00,
2013-01-08 16:57:00,36.1,21.5,30.24,SSW,202,0.0,0.0,55,0.00,,---,0.00,VWS V14.00,2013-01-08 21:57:00,
2013-01-08 17:02:00,35.6,21.5,30.24,SSW,202,0.0,0.0,56,0.00,,---,0.00,VWS V14.00,2013-01-08 22:02:00,
2013-01-08 17:07:00,35.2,21.5,30.24,SSW,202,0.0,0.0,57,0.00,,---,0.00,VWS V14.00,2013-01-08 22:07:00,
2013-01-08 17:12:00,34.7,21.5,30.24,SSW,202,0.0,0.0,58,0.00,,---,0.00,VWS V14.00,2013-01-08 22:12:00,
2013-01-08 17:17:00,34.7,21.5,30.24,SSW,202,0.0,0.0,58,0.00,,---,0.00,VWS V14.00,2013-01-08 22:17:00,
2013-01-08 17:22:00,34.2,21.3,30.24,SSW,202,0.0,0.0,59,0.00,,---,0.00,VWS V14.00,2013-01-08 22:22:00,
2013-01-08 17:27:00,33.8,21.4,30.24,SSW,202,0.0,0.0,60,0.00,,---,0.00,VWS V14.00,2013-01-08 22:27:00,
2013-01-08 17:32:00,33.3,21.7,30.24,SSW,202,0.0,0.0,62,0.00,,---,0.00,VWS V14.00,2013-01-08 22:32:00,
2013-01-08 17:37:00,33.1,21.5,30.24,SSW,202,0.0,0.0,62,0.00,,---,0.00,VWS V14.00,2013-01-08 22:37:00,
2013-01-08 17:42:00,32.9,21.7,30.24,SSW,202,0.0,0.0,63,0.00,,---,0.00,VWS V14.00,2013-01-08 22:42:00,
2013-01-08 17:47:00,32.5,21.7,30.24,SSW,202,0.0,0.0,64,0.00,,---,0.00,VWS V14.00,2013-01-08 22:47:00,
2013-01-08 17:52:00,32.2,21.8,30.24,WSW,248,0.0,0.0,65,0.00,,---,0.00,VWS V14.00,2013-01-08 22:52:00,
2013-01-08 17:57:00,32.5,22.1,30.24,SSW,202,0.0,0.9,65,0.00,,---,0.00,VWS V14.00,2013-01-08 22:57:00,
2013-01-08 18:02:00,32.5,22.5,30.24,WSW,248,0.0,2.0,66,0.00,,---,0.00,VWS V14.00,2013-01-08 23:02:00,
2013-01-08 18:07:00,32.5,22.8,30.24,WSW,248,0.0,0.0,67,0.00,,---,0.00,VWS V14.00,2013-01-08 23:07:00,
2013-01-08 18:12:00,32.5,22.8,30.24,NNE,22,0.0,0.0,67,0.00,,---,0.00,VWS V14.00,2013-01-08 23:12:00,
2013-01-08 18:17:00,32.4,22.6,30.24,NNE,22,0.0,0.0,67,0.00,,---,0.00,VWS V14.00,2013-01-08 23:17:00,
2013-01-08 18:22:00,32.2,22.8,30.24,NNE,22,0.0,0.0,68,0.00,,---,0.00,VWS V14.00,2013-01-08 23:22:00,
2013-01-08 18:27:00,32.2,22.8,30.24,NNE,22,0.0,0.0,68,0.00,,---,0.00,VWS V14.00,2013-01-08 23:27:00,
2013-01-08 18:32:00,31.8,22.5,30.24,NNE,22,0.0,0.0,68,0.00,,---,0.00,VWS V14.00,2013-01-08 23:32:00,
2013-01-08 18:37:00,31.5,22.1,30.24,NNE,22,0.0,0.0,68,0.00,,---,0.00,VWS V14.00,2013-01-08 23:37:00,
2013-01-08 18:42:00,31.3,22.0,30.27,NNE,22,0.0,0.0,68,0.00,,---,0.00,VWS V14.00,2013-01-08 23:42:00,
2013-01-08 18:47:00,31.5,22.1,30.27,NNW,338,0.0,0.0,68,0.00,,---,0.00,VWS V14.00,2013-01-08 23:47:00,
2013-01-08 18:52:00,31.3,22.3,30.27,NNW,338,0.0,0.0,69,0.00,,---,0.00,VWS V14.00,2013-01-08 23:52:00,
2013-01-08 18:57:00,31.5,22.8,30.27,NNE,22,0.0,0.0,70,0.00,,---,0.00,VWS V14.00,2013-01-08 23:57:00,
2013-01-08 19:02:00,31.5,22.8,30.27,NNE,22,0.0,0.0,70,0.00,,---,0.00,VWS V14.00,2013-01-09 00:02:00,
2013-01-08 19:07:00,31.3,22.6,30.27,NNE,22,0.0,0.0,70,0.00,,---,0.00,VWS V14.00,2013-01-09 00:07:00,
2013-01-08 19:12:00,30.9,22.3,30.27,NNE,22,0.0,0.0,70,0.00,,---,0.00,VWS V14.00,2013-01-09 00:12:00,
2013-01-08 19:17:00,31.1,22.1,30.27,NNE,22,0.0,0.0,69,0.00,,---,0.00,VWS V14.00,2013-01-09 00:17:00,
2013-01-08 19:22:00,31.1,22.5,30.27,NNE,22,0.0,0.0,70,0.00,,---,0.00,VWS V14.00,2013-01-09 00:22:00,
2013-01-08 19:27:00,31.1,22.5,30.27,NNE,22,0.0,0.0,70,0.00,,---,0.00,VWS V14.00,2013-01-09 00:27:00,
2013-01-08 19:32:00,31.1,22.5,30.27,NNE,22,1.6,1.6,70,0.00,,---,0.00,VWS V14.00,2013-01-09 00:32:00,
2013-01-08 19:37:00,31.1,22.5,30.27,NNE,22,0.0,0.9,70,0.00,,---,0.00,VWS V14.00,2013-01-09 00:37:00,
2013-01-08 19:42:00,31.1,22.5,30.27,NNE,22,0.0,0.0,70,0.00,,---,0.00,VWS V14.00,2013-01-09 00:42:00,
2013-01-08 19:47:00,31.1,22.5,30.27,NNE,22,0.0,0.0,70,0.00,,---,0.00,VWS V14.00,2013-01-09 00:47:00,
2013-01-08 19:52:00,31.1,22.5,30.27,South,180,0.0,0.0,70,0.00,,---,0.00,VWS V14.00,2013-01-09 00:52:00,
2013-01-08 19:57:00,32.2,23.9,30.27,SW,225,2.0,2.0,71,0.00,,---,0.00,VWS V14.00,2013-01-09 00:57:00,
2013-01-08 20:02:00,32.2,23.9,30.27,NNW,338,0.9,0.9,71,0.00,,---,0.00,VWS V14.00,2013-01-09 01:02:00,
2013-01-08 20:07:00,32.2,23.5,30.27,NNW,338,0.0,0.0,70,0.00,,---,0.00,VWS V14.00,2013-01-09 01:07:00,
2013-01-08 20:12:00,32.0,23.3,30.30,NNW,338,0.0,0.0,70,0.00,,---,0.00,VWS V14.00,2013-01-09 01:12:00,
2013-01-08 20:17:00,32.2,23.9,30.30,NNW,338,0.0,0.0,71,0.00,,---,0.00,VWS V14.00,2013-01-09 01:17:00,
2013-01-08 20:22:00,32.2,23.5,30.30,NNW,338,0.0,0.0,70,0.00,,---,0.00,VWS V14.00,2013-01-09 01:22:00,
2013-01-08 20:27:00,32.2,23.5,30.30,NNW,338,0.0,0.0,70,0.00,,---,0.00,VWS V14.00,2013-01-09 01:27:00,
2013-01-08 20:32:00,32.2,23.5,30.30,NNW,338,0.0,0.0,70,0.00,,---,0.00,VWS V14.00,2013-01-09 01:32:00,
2013-01-08 20:37:00,32.2,23.9,30.30,NNW,338,0.9,0.9,71,0.00,,---,0.00,VWS V14.00,2013-01-09 01:37:00,
2013-01-08 20:42:00,32.0,23.7,30.30,NNW,338,0.0,0.0,71,0.00,,---,0.00,VWS V14.00,2013-01-09 01:42:00,
2013-01-08 20:46:00,32.0,23.7,30.30,NNW,338,0.0,0.0,71,0.00,,---,0.00,VWS V14.00,2013-01-09 01:46:00,
2013-01-08 20:51:00,32.0,23.7,30.30,NNW,338,0.0,0.0,71,0.00,,---,0.00,VWS V14.00,2013-01-09 01:51:00,
2013-01-08 20:56:00,32.0,23.7,30.30,SW,225,0.0,0.0,71,0.00,,---,0.00,VWS V14.00,2013-01-09 01:56:00,
2013-01-08 21:01:00,32.0,23.7,30.30,SW,225,0.0,0.0,71,0.00,,---,0.00,VWS V14.00,2013-01-09 02:01:00,
2013-01-08 21:06:00,32.0,23.7,30.30,SW,225,0.0,0.0,71,0.00,,---,0.00,VWS V14.00,2013-01-09 02:06:00,
2013-01-08 21:12:00,31.6,23.3,30.33,SW,225,1.3,1.3,71,0.00,,---,0.00,VWS V14.00,2013-01-09 02:12:00,
2013-01-08 21:17:00,31.6,23.3,30.33,SW,225,0.0,0.0,71,0.00,,---,0.00,VWS V14.00,2013-01-09 02:17:00,
2013-01-08 21:22:00,31.5,23.2,30.33,SW,225,0.0,0.0,71,0.00,,---,0.00,VWS V14.00,2013-01-09 02:22:00,
2013-01-08 21:27:00,31.1,22.8,30.33,SW,225,0.0,0.0,71,0.00,,---,0.00,VWS V14.00,2013-01-09 02:27:00,
2013-01-08 21:32:00,30.7,22.8,30.33,SW,225,0.0,0.0,72,0.00,,---,0.00,VWS V14.00,2013-01-09 02:32:00,
2013-01-08 21:37:00,30.2,22.3,30.33,SW,225,0.0,0.0,72,0.00,,---,0.00,VWS V14.00,2013-01-09 02:37:00,
2013-01-08 21:42:00,29.8,22.2,30.33,SW,225,0.0,0.0,73,0.00,,---,0.00,VWS V14.00,2013-01-09 02:42:00,
2013-01-08 21:47:00,29.7,22.1,30.33,SW,225,0.0,0.0,73,0.00,,---,0.00,VWS V14.00,2013-01-09 02:47:00,
2013-01-08 21:52:00,29.5,21.9,30.33,SW,225,0.0,0.0,73,0.00,,---,0.00,VWS V14.00,2013-01-09 02:52:00,
2013-01-08 21:57:00,28.9,21.7,30.33,SW,225,0.0,0.0,74,0.00,,---,0.00,VWS V14.00,2013-01-09 02:57:00,
2013-01-08 22:02:00,28.9,21.7,30.33,SW,225,0.0,0.0,74,0.00,,---,0.00,VWS V14.00,2013-01-09 03:02:00,
2013-01-08 22:07:00,28.9,21.7,30.33,SW,225,0.0,0.0,74,0.00,,---,0.00,VWS V14.00,2013-01-09 03:07:00,
2013-01-08 22:12:00,28.6,21.7,30.33,SW,225,0.0,0.0,75,0.00,,---,0.00,VWS V14.00,2013-01-09 03:12:00,
2013-01-08 22:17:00,28.4,21.5,30.33,SW,225,0.0,0.0,75,0.00,,---,0.00,VWS V14.00,2013-01-09 03:17:00,
2013-01-08 22:22:00,28.4,21.8,30.33,SW,225,0.0,0.0,76,0.00,,---,0.00,VWS V14.00,2013-01-09 03:22:00,
2013-01-08 22:27:00,28.6,21.7,30.33,SW,225,0.0,0.0,75,0.00,,---,0.00,VWS V14.00,2013-01-09 03:27:00,
2013-01-08 22:32:00,28.6,21.7,30.33,SW,225,0.0,0.0,75,0.00,,---,0.00,VWS V14.00,2013-01-09 03:32:00,
2013-01-08 22:36:00,28.6,22.0,30.33,SW,225,0.0,0.0,76,0.00,,---,0.00,VWS V14.00,2013-01-09 03:36:00,
2013-01-08 22:42:00,28.6,22.0,30.33,SW,225,0.0,0.0,76,0.00,,---,0.00,VWS V14.00,2013-01-09 03:42:00,
2013-01-08 22:46:00,28.6,22.3,30.33,SW,225,0.0,0.0,77,0.00,,---,0.00,VWS V14.00,2013-01-09 03:46:00,
2013-01-08 22:51:00,28.6,22.3,30.33,SW,225,0.0,0.0,77,0.00,,---,0.00,VWS V14.00,2013-01-09 03:51:00,
2013-01-08 22:56:00,28.6,22.3,30.33,SW,225,0.0,0.0,77,0.00,,---,0.00,VWS V14.00,2013-01-09 03:56:00,
2013-01-08 23:01:00,28.4,22.1,30.33,SW,225,0.0,0.0,77,0.00,,---,0.00,VWS V14.00,2013-01-09 04:01:00,
2013-01-08 23:06:00,28.0,22.1,30.33,SW,225,0.0,0.0,78,0.00,,---,0.00,VWS V14.00,2013-01-09 04:06:00,
2013-01-08 23:11:00,27.9,21.9,30.33,SW,225,0.0,0.0,78,0.00,,---,0.00,VWS V14.00,2013-01-09 04:11:00,
2013-01-08 23:16:00,27.9,22.2,30.33,SW,225,0.0,0.0,79,0.00,,---,0.00,VWS V14.00,2013-01-09 04:16:00,
2013-01-08 23:21:00,27.9,22.2,30.33,SW,225,0.0,0.0,79,0.00,,---,0.00,VWS V14.00,2013-01-09 04:21:00,
2013-01-08 23:26:00,27.7,22.0,30.33,SW,225,0.0,0.0,79,0.00,,---,0.00,VWS V14.00,2013-01-09 04:26:00,
2013-01-08 23:31:00,27.5,21.9,30.33,SW,225,0.0,0.0,79,0.00,,---,0.00,VWS V14.00,2013-01-09 04:31:00,
2013-01-08 23:36:00,27.7,22.0,30.33,WNW,292,0.0,0.0,79,0.00,,---,0.00,VWS V14.00,2013-01-09 04:36:00,
2013-01-08 23:41:00,27.5,21.9,30.33,WNW,292,0.0,0.0,79,0.00,,---,0.00,VWS V14.00,2013-01-09 04:41:00,
2013-01-08 23:46:00,27.3,22.0,30.33,WNW,292,0.0,0.0,80,0.00,,---,0.00,VWS V14.00,2013-01-09 04:46:00,
2013-01-08 23:51:00,27.1,21.8,30.33,WNW,292,0.0,0.0,80,0.00,,---,0.00,VWS V14.00,2013-01-09 04:51:00,
2013-01-08 23:56:00,27.1,21.8,30.33,WNW,292,0.0,0.0,80,0.00,,---,0.00,VWS V14.00,2013-01-09 04:56:00,